Location: Albert Place
(40.7505°N, 111.9230°W)
Time: 22:52:30
(UTC+00:00)

Daily predictions for brighter satellites

Satellite Brightness Start Highest point End
(mag) Time Altitude Azimuth Time Altitude Azimuth Time Altitude Azimuth
USA 59 Rocket 2.0 12:10:59 24° S 12:10:59 24° S 12:13:30 10° SSE
Cosmos 2333 Rocket 2.8 12:07:27 37° N 12:09:24 53° ENE 12:14:59 10° SE
Cosmos 2219 Rocket 4.2 12:06:20 12° N 12:10:15 23° NE 12:14:39 10° ESE
Cosmos 2058 Rocket 4.0 12:17:26 30° NNE 12:19:11 45° ENE 12:23:22 10° SSE
Cosmos 2322 Rocket 2.9 12:18:08 26° N 12:21:08 50° ENE 12:26:37 10° SE
Cosmos 1428 Rocket 4.3 12:15:03 10° SSW 12:21:13 67° W 12:27:30 10° N
SKYMED 2 4.4 12:17:31 10° SSE 12:21:41 48° ENE 12:23:25 30° NNE
CZ-4 R/B 4.4 12:18:51 10° NNE 12:23:22 54° E 12:27:53 10° S
Meteor 2-20 4.5 12:18:57 11° N 12:24:51 76° E 12:30:54 10° SSE
Cosmos 1092 Rocket 4.0 12:19:45 10° S 12:26:01 78° E 12:32:15 10° N
NOSS 3-1 (C) 4.1 12:23:49 47° WNW 12:26:06 63° WSW 12:35:06 10° SSE
NOAA 12 4.4 12:21:39 10° NNE 12:26:54 64° ESE 12:32:05 10° S
Cosmos 405 Rocket 4.3 12:25:30 10° SSE 12:28:22 29° E 12:31:15 10° NNE
Cosmos 2195 Rocket 4.4 12:33:20 10° SSW 12:39:30 61° W 12:45:47 10° N
Cosmos-2242 2.9 12:42:55 34° N 12:44:42 82° E 12:48:52 10° S
Helios 1A Rocket 3.7 12:41:38 10° SE 12:44:45 39° ENE 12:46:26 22° NNE
COSMO-SKYMED 1 3.0 12:41:47 10° SSE 12:45:48 57° ENE 12:48:59 16° N
Meteor 2-20 Rocket 4.3 12:40:07 10° N 12:45:51 78° E 12:51:34 10° S
SL-16 R/B 2.3 12:49:41 40° WNW 12:51:19 53° WSW 12:56:47 10° S
IRS-1D 3.4 12:48:40 10° N 12:53:40 65° WNW 12:58:45 10° SSW
COSMOS 2455 4.4 12:56:45 18° SW 12:56:45 18° SW 12:59:18 10° SSW
Meteor 2-2 Rocket 4.2 12:49:36 10° NNW 12:55:21 79° W 13:01:11 10° S
Meteor 2-3 Rocket 4.2 12:52:48 10° SW 12:58:02 36° WNW 13:03:16 10° N
Cosmos 1626 Rocket 3.4 13:00:41 10° S 13:05:06 86° W 13:09:31 10° N
Meteor 1-26 Rocket 4.2 13:01:49 11° NNW 13:07:14 60° W 13:12:54 10° S
SL-4 R/B 1.8 13:08:11 39° NNW 13:09:00 53° NNE 13:12:06 10° ESE
Cosmos 2278 4.2 13:14:19 24° WNW 13:16:53 37° WSW 13:22:00 10° S
OAO 3 Rocket 4.2 13:13:48 16° SW 13:17:08 39° S 13:21:31 10° ESE
ATLAS 2AS CENTAUR R/B 2.7 13:10:50 10° SW 13:17:57 85° NW 13:24:54 10° NNE
Okean 1 3.5 13:18:54 32° WNW 13:19:44 37° W 13:23:01 10° SSW
Cosmos 1814 Rocket 4.3 13:15:17 10° SW 13:20:12 41° WNW 13:25:14 10° N
Cosmos 158 Rocket 4.4 13:25:32 10° SW 13:30:30 40° WNW 13:35:25 10° N
IRIDIUM 104 4.3 13:26:20 10° SSW 13:31:29 62° W 13:36:40 10° N
Cosmos 1743 2.3 13:29:34 10° SSW 13:32:43 53° W 13:35:55 10° N
OAO 2 Rocket 4.2 13:28:36 12° WSW 13:33:03 45° S 13:37:56 10° ESE
Cosmos 2151 2.8 13:29:24 10° S 13:33:28 83° W 13:37:36 10° N
CBERS-1 4.0 13:31:28 10° NNE 13:36:36 89° W 13:41:40 10° SSW
Cosmos 2360 Rocket 2.6 13:34:28 12° NW 13:39:15 42° WSW 13:44:28 10° S
Cosmos 1570 Rocket 4.2 13:34:52 10° SSW 13:40:09 78° ESE 13:45:30 10° NNE
BREEZE-M DEB (TANK) 4.5 13:38:29 14° NNW 13:40:26 24° NNE 13:45:13 10° ENE
Cosmos 192 4.3 13:35:38 10° NNW 13:40:34 83° WSW 13:45:26 10° SSE
IRIDIUM 114 4.5 13:35:36 10° SSW 13:40:38 50° W 13:45:44 10° N
BREEZE-M DEB (TANK) 2.9 13:38:48 18° WNW 13:41:13 76° NNE 13:49:49 10° ESE
Cosmos 1812 Rocket 3.5 13:38:05 10° N 13:42:25 84° W 13:46:46 10° S
Cosmos 1602 Rocket 3.6 13:40:10 10° SSW 13:44:32 60° W 13:48:56 10° N
Cosmos 2285 Rocket 4.3 13:42:09 10° NNW 13:48:13 48° WSW 13:54:19 10° S
Orbus 7S? 2.9 13:46:07 14° NW 13:48:17 61° NE 13:51:35 10° SE
Cosmos 2344 3.9 13:42:58 10° SSW 13:51:13 74° ESE 13:58:23 10° NE
Okean 1-7 Rocket 3.5 13:47:13 10° SSW 13:51:41 77° W 13:56:10 10° N
Cosmos 2237 Rocket 4.2 13:48:43 10° N 13:53:05 22° NE 13:57:26 10° ESE
Cosmos 2333 Rocket 3.5 13:49:31 12° WNW 13:53:13 22° W 13:57:27 10° SSW
Cosmos 2221 2.5 13:50:28 10° NNW 13:54:31 56° W 13:58:34 10° S
Cosmos 2219 Rocket 2.4 13:49:01 10° NNW 13:54:31 55° WSW 13:59:58 10° S
Cosmos 1707 2.1 13:55:15 10° NNW 13:58:21 71° W 14:01:27 10° S
ISS -3.7 13:56:03 10° SW 13:59:25 86° SSE 14:02:49 10° NE
CZ-2D R/B 2.8 13:58:14 10° NNE 14:01:25 84° ESE 14:04:34 10° S
BREEZE-M DEB (TANK) 2.4 14:00:08 11° NW 14:01:48 48° NNE 14:04:59 10° ESE
Cosmos 405 Rocket 4.2 14:00:35 10° W 14:01:59 12° WNW 14:03:23 10° NW
Cosmos 2315 Rocket 4.2 13:57:26 10° N 14:03:49 82° E 14:10:05 10° S
Thor Agena Rocket 3.4 13:59:25 10° N 14:04:27 73° WNW 14:09:26 10° SSW
Cosmos 2322 Rocket 3.4 14:00:26 10° NW 14:04:45 23° W 14:09:03 10° SSW
ATLAS CENTAUR R/B 4.3 14:06:29 10° SSE 14:08:43 17° ESE 14:10:58 10° ENE
Cosmos 1953 Rocket 4.0 14:04:59 10° S 14:09:16 67° E 14:13:36 10° NNE
BREEZE M DEB (TANK) 3.1 14:09:16 10° WNW 14:11:36 30° N 14:16:05 10° NE
S3M 4.0 14:07:17 10° NNW 14:13:23 64° W 14:19:23 10° S
Cosmos 1484 Rocket 4.0 14:12:29 10° NNW 14:14:41 16° WNW 14:16:52 10° WSW
Cosmos 1655 Rocket 4.1 14:08:41 10° S 14:15:02 88° E 14:21:22 10° N
Meteor 1-25 Rocket 4.3 14:09:23 10° SSW 14:15:06 69° W 14:20:56 10° N
MOS 1 Rocket 3.6 14:11:49 10° N 14:17:11 87° WNW 14:22:21 10° SSW
